This is the latest recevied weather packets stored in our database for station/object F6BIJ-13. If no packets are shown the sender has not sent any weather packets the latest 10 day(s).
| Time | Temp. | Humidity | Pressure | Rain* | Wind** | Luminosity | Snow |
|---|---|---|---|---|---|---|---|
| 1777640797 | 23.33° C | 48% | 1023.2 hPa | 0 mm | - | - | - |
| 1777639357 | 22.78° C | 48% | 1023.4 hPa | 0 mm | - | - | - |
| 1777638997 | 22.78° C | 47% | 1023.5 hPa | 0 mm | - | - | - |
| 1777638637 | 22.78° C | 49% | 1023.5 hPa | 0 mm | - | - | - |
| 1777638277 | 22.22° C | 49% | 1023.4 hPa | 0 mm | - | - | - |
| 1777637917 | 22.22° C | 49% | 1023.5 hPa | 0 mm | - | - | - |
| 1777637557 | 22.22° C | 51% | 1023.6 hPa | 0 mm | - | - | - |
| 1777637196 | 22.22° C | 50% | 1023.5 hPa | 0 mm | - | - | - |
| 1777636836 | 21.67° C | 49% | 1023.6 hPa | 0 mm | - | - | - |
| 1777636117 | 21.67° C | 50% | 1023.7 hPa | 0 mm | - | - | - |
| 1777635757 | 21.67° C | 54% | 1023.8 hPa | 0 mm | - | - | - |
| 1777635397 | 21.67° C | 50% | 1023.9 hPa | 0 mm | - | - | - |
| 1777635036 | 22.22° C | 48% | 1023.9 hPa | 0 mm | - | - | - |
| 1777634677 | 21.11° C | 52% | 1024 hPa | 0 mm | - | - | - |
| 1777634317 | 21.11° C | 48% | 1024.1 hPa | 0 mm | - | - | - |
| 1777633957 | 21.11° C | 50% | 1024.1 hPa | 0 mm | - | - | - |
| 1777633596 | 21.11° C | 49% | 1024.2 hPa | 0 mm | - | - | - |
| 1777633237 | 21.11° C | 49% | 1024.2 hPa | 0 mm | - | - | - |
| 1777632877 | 20.56° C | 52% | 1024.2 hPa | 0 mm | - | - | - |
| 1777632517 | 21.11° C | 50% | 1024.4 hPa | 0 mm | - | - | - |
| 1777632157 | 20.56° C | 50% | 1024.4 hPa | 0 mm | - | - | - |
| 1777631797 | 21.11° C | 50% | 1024.5 hPa | 0 mm | - | - | - |
| 1777631437 | 20.56° C | 51% | 1024.5 hPa | 0 mm | - | - | - |
| 1777631077 | 20.56° C | 48% | 1024.6 hPa | 0 mm | - | - | - |
| 1777630717 | 21.11° C | 45% | 1024.6 hPa | 0 mm | - | - | - |
* Rain latest 24 hours (hover to see other rain measurements)
** Current wind speed in m/s (hover to see current wind gust speed)